Погода Фролово

Погода Фролово : погода сейчас, прогноз погоды и архив. Всё, что Вы хотите узнать о погоде Фролово!

Поиск расширенной информации на нашем сайте:

Другие новости

Новости СМИ2

Главная страница сайта

Новости сайта

03.07.2017

Напоминаем, что на нашем специализированном сайте Метеоцентр.Азия вы можете получить высокодетализированные автоматические прогнозы погоды по пунктам России, СНГ и мира в авиационном формате (включающие направление и скорость ветра, видимость, явления погоды, количество и форму облачности, нижнюю и верхнюю границу облачности).


Погода Фролово - сегодня

Время (UTC), дата Ветер
(°,м/с) 
Видим.   Явления Облачность Т
(°С)
Тd
(°С)
f(%) Тe
(°С)
Pmin
(гПа)
dP
(гПа)
Po
(мм)
O2
(г/м3)
Тmin Tmax R s Состояние
почвы
00 16.02.18 090 (В) 20000 м    6/0 средняя 
[Ac und]
-9.9 -12.5 81 -15  1038.5  -0.2  767  322           
03 16.02.18 100 (В) 20000 м    9/0 средняя 
[Ac und]
-8.7 -11.3 81 -12  1038.5  0.1  767  320  -9.9      равномерный
сухой снег
100% 
06 16.02.18 100 (В) 5{11}  10 км    9/0 средняя 
[Ac As]
-7.7 -11.5 74 -12  1038.8  0.4  767  319           
09 16.02.18 100 (В) 4{11}  10 км    9/0 средняя 
[Ac As]
-5.9 -10.6 69 -9  1038.3  -0.5  767  317           
12 16.02.18 100 (В) 4{10}  10 км    9/0 средняя 
[Ac As]
-4.1 -10 63 -7  1037.3  -0.8  766  314           
15 16.02.18 100 (В) 5{10}  20000 м    10/0 средняя 
[Ac As]
-6 -10.3 72 -10  1036.9  -0.5  766  317    -4.1       
18 16.02.18 100 (В) 5-10{13}  20000 м    10/0 средняя 
[Ac As]
-7.6 -10.8 78 -12  1036.4  -0.5  766  318           
21 16.02.18 100 (В) 4{10}  20000 м    3/0 средняя 
[Ac trans]
-8.6 -11.4 80 -12  1035.9  -0.6  765  319           
00 17.02.18 100 (В) 4{10}  20000 м    ясно 
-9.4 -12.1 81 -13  1035  -0.9  764  320           
03 17.02.18 090 (В) 20000 м    10/0 средняя 
[Ac As]
-9.5 -12.5 79 -15  1033.8  -1.2  763  320  -9.5      равномерный
сухой снег
100% 
06 17.02.18 090 (В) 5{10}  10 км    8/0 верхняя 
[Cs]
-9.8 -13.2 76 -14  1033.5  -0.3  763  320  -10         
09 17.02.18 090 (В) 5{11}  10 км    8/0 средняя 
[Ac und]
-6.4 -11.6 67 -10  1031.4  -1.8  762  315           
12 17.02.18 100 (В) 3{10}  10 км    10/0 средняя 
[Ac As]
-4.6 -9.8 67 -7  1030.1  -1.2  761  313           
15 17.02.18 090 (В) 20000 м    10/0 средняя 
[Ac As]
-5.7 -9.2 76 -10  1029  -1.1  760  314    -4       
18 17.02.18 100 (В) 4-10{11}  20000 м    10/0 средняя 
[Ac As]
-5.5 -8.6 79 -9  1028.2  -0.8  759  313           
21 17.02.18 110 (В) 3{11}  10 км  слаб. снег  10/10 300 м 
[Frnb|Ns]
-6.2 -8.9 81 -9  1027.1  -1.1  759  314           
00 18.02.18 100 (В) 10 км  слаб. снег  10/10 300 м 
[Frnb|Ns]
-7.1 -9.7 82 -11  1026  -1.2  758  314           
03 18.02.18 100 (В) 10 км  слаб. снег  10/10 300 м 
[Frnb|Ns]
-7.8 -9.8 86 -11  1024.3  -1.7  757  315  -7.8    0.8     
06 18.02.18 090 (В) 4000 м  слаб. снег  10/10 300 м 
[Frnb|Ns]
-8.4 -10.5 85 -12  1024.1  -0.2  756  315  -8.4         
09 18.02.18 100 (В) 4000 м  слаб. снег  10/10 300 м 
[Frnb|Ns]
-7.4 -10.1 81 -10  1023.2  -0.9  756  314           
12 18.02.18 110 (В) 4000 м  слаб. снег  10/10 300 м 
[Frnb|Ns]
-6.6 -9.3 81 -8  1022.5  -0.7  755  313           
15 18.02.18 140 (ЮВ) 20000 м  {снег}  9/9 600 м 
[Sc]
-6.2 -8.6 83 -8  1022.9  0.4  756  312    -6.2     
18 18.02.18 210 (ЮЗ) 20000 м  {снег}  10/0 средняя 
[Ac As]
-5.9 -8.1 84 -6  1023.2  0.3  756  312           
21 18.02.18 тихо ()   20000 м    10/0 средняя 
[Ac As]
-5.9 -7.8 86 -6  1023  -0.2  756  312           
00 19.02.18 тихо ()   20000 м    10/0 средняя 
[Ac As]
-5.7 -7.5 87 -6  1023.1  0.2  756  312           
Время (UTC), дата Ветер
(°,м/с) 
Видим.   Явления Облачность Т
(°С)
Тd
(°С)
f(%) Тe
(°С)
Pmin
(гПа)
dP
(гПа)
Po
(мм)
O2
(г/м3)
Тmin Tmax R s Состояние
почвы

Для получения пояснительной информации подведите курсор к названию столбца.

ПОГОДА Фролово - архив

Всё, что Вы хотите узнать о погоде Фролово - удобно и подробно!

Выберите нужную дату (начиная с 1 января 2015* года) и нажмите кнопку "Найти".
Будут отображены архивные сводки погоды по пункту Фролово, начиная с указанной даты.


Отображать данные в формате CSV (для использования в таблицах Excel)


Внимание! Наш архив погоды предназначен исключительно для личного некоммерческого использования в познавательных целях. Если Вам необходимы официальные справки о состоянии погоды (для производственных, юридических, коммерческих и т.п. целей), обращайтесь в органы Росгидромета.

*Примечание: данная дата относится к архиву по метеостанциям СССР (Россия, СНГ, Балтия).
Архив по метеостанциям Зарубежной Европы и Азии (кроме Китая) хранится 10 дней, по другим регионам земного шара (Китай, Африка, Америка, Австралия, Океания) - 1 день.

Фролово - район местоположения метеостанции


Название, широта, долгота, высота метеостанции:
Фролово 49.8°ш. 43.7°д. 119 м над ур. моря [Российская Федерация]

Дополнительная информация

В oтличие oт бoльшинства пoгoдных сайтoв мы публикуем пoдрoбную метеoинфoрмацию в детальнoм прoфессиoнальнoм фoрмате.

Характеристики температуры и влажнoсти вoздуха измеряются на высoте 2 м в тени вдали oт зданий и деревьев.
Скoрoсть ветра измеряется на высoте 10 м (на урoвне рoста челoвека скoрoсть ветра ниже в 1.5-2 раза). Если метеoстанция нахoдится в гoрoде или в лесу, тo скoрoсть ветра занижена на 2-4 м/с пo сравнению с oткрытым местoм. Скoрoсть ветра над акватoриями крупных рек и oзёр, а также на вершинах хoлмoв на 2-5 м/с выше, чем в oбычных услoвиях.
Атмoсфернoе давление в разных тoчках местнoсти мoжет значительнo oтличаться oт давления на метеoстанции, в зависимoсти oт услoвий рельефа (при пoдъёме на 10 м давление пoнижается примернo на 1 мм рт.ст.).